Year,Month,Day,Hour,Minute,Value (Times are PST for temperature in C)
2007,05,24,00,00,10.90
2007,05,24,00,01,10.90
2007,05,24,00,02,10.90
2007,05,24,00,03,10.90
2007,05,24,00,04,10.90
2007,05,24,00,05,10.90
2007,05,24,00,06,10.90
2007,05,24,00,07,10.90
2007,05,24,00,08,10.90
2007,05,24,00,09,10.90
2007,05,24,00,10,10.90
2007,05,24,00,11,10.90
2007,05,24,00,12,10.90
2007,05,24,00,13,10.90
2007,05,24,00,14,10.90
2007,05,24,00,15,10.80
2007,05,24,00,16,10.80
2007,05,24,00,17,10.80
2007,05,24,00,18,10.80
2007,05,24,00,19,10.80
2007,05,24,00,20,10.80
2007,05,24,00,21,10.80
2007,05,24,00,22,10.70
2007,05,24,00,23,10.70
2007,05,24,00,24,10.70
2007,05,24,00,25,10.70
2007,05,24,00,26,10.60
2007,05,24,00,27,10.60
2007,05,24,00,28,10.60
2007,05,24,00,29,10.60
2007,05,24,00,30,10.60
2007,05,24,00,31,10.60
2007,05,24,00,32,10.60
2007,05,24,00,33,10.50
2007,05,24,00,34,10.40
2007,05,24,00,35,10.40
2007,05,24,00,36,10.40
2007,05,24,00,37,10.40
2007,05,24,00,38,10.40
2007,05,24,00,39,10.40
2007,05,24,00,40,10.40
2007,05,24,00,41,10.30
2007,05,24,00,42,10.30
2007,05,24,00,43,10.30
2007,05,24,00,44,10.30
2007,05,24,00,45,10.30
2007,05,24,00,46,10.30
2007,05,24,00,47,10.30
2007,05,24,00,48,10.30
2007,05,24,00,49,10.30
2007,05,24,00,50,10.20
2007,05,24,00,51,10.20
2007,05,24,00,52,10.20
2007,05,24,00,53,10.20
2007,05,24,00,54,10.20
2007,05,24,00,55,10.20
2007,05,24,00,56,10.10
2007,05,24,00,57,10.10
2007,05,24,00,58,10.10
2007,05,24,00,59,10.10
2007,05,24,01,00,10.10
2007,05,24,01,01,10.00
2007,05,24,01,02,9.90
2007,05,24,01,03,9.90
2007,05,24,01,04,9.90
2007,05,24,01,05,9.90
2007,05,24,01,06,9.90
2007,05,24,01,07,9.90
2007,05,24,01,08,9.90
2007,05,24,01,09,9.90
2007,05,24,01,10,9.90
2007,05,24,01,11,9.90
2007,05,24,01,12,9.90
2007,05,24,01,13,9.90
2007,05,24,01,14,9.90
2007,05,24,01,15,9.90
2007,05,24,01,16,9.80
2007,05,24,01,17,9.80
2007,05,24,01,18,9.80
2007,05,24,01,19,9.80
2007,05,24,01,20,9.80
2007,05,24,01,21,9.70
2007,05,24,01,22,9.70
2007,05,24,01,23,9.70
2007,05,24,01,24,9.70
2007,05,24,01,25,9.70
2007,05,24,01,26,9.70
2007,05,24,01,27,9.70
2007,05,24,01,28,9.70
2007,05,24,01,29,9.70
2007,05,24,01,30,9.70
2007,05,24,01,31,9.70
2007,05,24,01,32,9.70
2007,05,24,01,33,9.70
2007,05,24,01,34,9.70
2007,05,24,01,35,9.70
2007,05,24,01,36,9.70
2007,05,24,01,37,9.70
2007,05,24,01,38,9.70
2007,05,24,01,39,9.70
2007,05,24,01,40,9.70
2007,05,24,01,41,9.60
2007,05,24,01,42,9.60
2007,05,24,01,43,9.60
2007,05,24,01,44,9.60
2007,05,24,01,45,9.60
2007,05,24,01,46,9.60
2007,05,24,01,47,9.60
2007,05,24,01,48,9.60
2007,05,24,01,49,9.60
2007,05,24,01,50,9.60
2007,05,24,01,51,9.70
2007,05,24,01,52,9.60
2007,05,24,01,53,9.60
2007,05,24,01,54,9.60
2007,05,24,01,55,9.50
2007,05,24,01,56,9.50
2007,05,24,01,57,9.40
2007,05,24,01,58,9.40
2007,05,24,01,59,9.40
2007,05,24,02,00,9.30
2007,05,24,02,01,9.30
2007,05,24,02,02,9.20
2007,05,24,02,03,9.20
2007,05,24,02,04,9.20
2007,05,24,02,05,9.20
2007,05,24,02,06,9.10
2007,05,24,02,07,9.10
2007,05,24,02,08,9.00
2007,05,24,02,09,9.00
2007,05,24,02,10,9.00
2007,05,24,02,11,8.90
2007,05,24,02,12,8.90
2007,05,24,02,13,8.90
2007,05,24,02,14,8.90
2007,05,24,02,15,8.90
2007,05,24,02,16,8.90
2007,05,24,02,17,8.90
2007,05,24,02,18,8.80
2007,05,24,02,19,8.80
2007,05,24,02,20,8.80
2007,05,24,02,21,8.80
2007,05,24,02,22,8.80
2007,05,24,02,23,8.80
2007,05,24,02,24,8.70
2007,05,24,02,25,8.70
2007,05,24,02,26,8.70
2007,05,24,02,27,8.70
2007,05,24,02,28,8.70
2007,05,24,02,29,8.70
2007,05,24,02,30,8.60
2007,05,24,02,31,8.60
2007,05,24,02,32,8.60
2007,05,24,02,33,8.60
2007,05,24,02,34,8.60
2007,05,24,02,35,8.60
2007,05,24,02,36,8.60
2007,05,24,02,37,8.60
2007,05,24,02,38,8.60
2007,05,24,02,39,8.60
2007,05,24,02,40,8.60
2007,05,24,02,41,8.60
2007,05,24,02,42,8.60
2007,05,24,02,43,8.60
2007,05,24,02,44,8.60
2007,05,24,02,45,8.60
2007,05,24,02,46,8.70
2007,05,24,02,47,8.70
2007,05,24,02,48,8.70
2007,05,24,02,49,8.70
2007,05,24,02,50,8.70
2007,05,24,02,51,8.70
2007,05,24,02,52,8.70
2007,05,24,02,53,8.60
2007,05,24,02,54,8.60
2007,05,24,02,55,8.60
2007,05,24,02,56,8.60
2007,05,24,02,57,8.60
2007,05,24,02,58,8.60
2007,05,24,02,59,8.50
2007,05,24,03,00,8.50
2007,05,24,03,01,8.50
2007,05,24,03,02,8.50
2007,05,24,03,03,8.50
2007,05,24,03,04,8.50
2007,05,24,03,05,8.50
2007,05,24,03,06,8.50
2007,05,24,03,07,8.50
2007,05,24,03,08,8.50
2007,05,24,03,09,8.40
2007,05,24,03,10,8.40
2007,05,24,03,11,8.40
2007,05,24,03,12,8.30
2007,05,24,03,13,8.30
2007,05,24,03,14,8.30
2007,05,24,03,15,8.30
2007,05,24,03,16,8.30
2007,05,24,03,17,8.30
2007,05,24,03,18,8.30
2007,05,24,03,19,8.30
2007,05,24,03,20,8.20
2007,05,24,03,21,8.20
2007,05,24,03,22,8.20
2007,05,24,03,23,8.20
2007,05,24,03,24,8.20
2007,05,24,03,25,8.20
2007,05,24,03,26,8.20
2007,05,24,03,27,8.20
2007,05,24,03,28,8.20
2007,05,24,03,29,8.20
2007,05,24,03,30,8.20
2007,05,24,03,31,8.20
2007,05,24,03,32,8.20
2007,05,24,03,33,8.20
2007,05,24,03,34,8.20
2007,05,24,03,35,8.20
2007,05,24,03,36,8.20
2007,05,24,03,37,8.10
2007,05,24,03,38,8.10
2007,05,24,03,39,8.10
2007,05,24,03,40,8.10
2007,05,24,03,41,8.10
2007,05,24,03,42,8.10
2007,05,24,03,43,8.10
2007,05,24,03,44,8.10
2007,05,24,03,45,8.00
2007,05,24,03,46,8.00
2007,05,24,03,47,8.00
2007,05,24,03,48,8.00
2007,05,24,03,49,8.00
2007,05,24,03,50,7.90
2007,05,24,03,51,7.90
2007,05,24,03,52,7.90
2007,05,24,03,53,7.90
2007,05,24,03,54,7.90
2007,05,24,03,55,7.80
2007,05,24,03,56,7.80
2007,05,24,03,57,7.80
2007,05,24,03,58,7.80
2007,05,24,03,59,7.80
2007,05,24,04,00,7.80
2007,05,24,04,01,7.80
2007,05,24,04,02,7.70
2007,05,24,04,03,7.70
2007,05,24,04,04,7.70
2007,05,24,04,05,7.60
2007,05,24,04,06,7.60
2007,05,24,04,07,7.60
2007,05,24,04,08,7.60
2007,05,24,04,09,7.60
2007,05,24,04,10,7.70
2007,05,24,04,11,7.70
2007,05,24,04,12,7.70
2007,05,24,04,13,7.80
2007,05,24,04,14,7.80
2007,05,24,04,15,7.80
2007,05,24,04,16,7.90
2007,05,24,04,17,7.90
2007,05,24,04,18,7.90
2007,05,24,04,19,7.90
2007,05,24,04,20,7.90
2007,05,24,04,21,7.90
2007,05,24,04,22,7.90
2007,05,24,04,23,7.90
2007,05,24,04,24,7.90
2007,05,24,04,25,7.90
2007,05,24,04,26,7.80
2007,05,24,04,27,7.80
2007,05,24,04,28,7.80
2007,05,24,04,29,7.80
2007,05,24,04,30,7.80
2007,05,24,04,31,7.80
2007,05,24,04,32,7.70
2007,05,24,04,33,7.70
2007,05,24,04,34,7.70
2007,05,24,04,35,7.70
2007,05,24,04,36,7.60
2007,05,24,04,37,7.60
2007,05,24,04,38,7.60
2007,05,24,04,39,7.60
2007,05,24,04,40,7.60
2007,05,24,04,41,7.60
2007,05,24,04,42,7.60
2007,05,24,04,43,7.60
2007,05,24,04,44,7.50
2007,05,24,04,45,7.50
2007,05,24,04,46,7.50
2007,05,24,04,47,7.50
2007,05,24,04,48,7.50
2007,05,24,04,49,7.50
2007,05,24,04,50,7.40
2007,05,24,04,51,7.40
2007,05,24,04,52,7.40
2007,05,24,04,53,7.30
2007,05,24,04,54,7.30
2007,05,24,04,55,7.30
2007,05,24,04,56,7.30
2007,05,24,04,57,7.30
2007,05,24,04,58,7.30
2007,05,24,04,59,7.30
2007,05,24,05,00,7.30
2007,05,24,05,01,7.30
2007,05,24,05,02,7.30
2007,05,24,05,03,7.30
2007,05,24,05,04,7.30
2007,05,24,05,05,7.30
2007,05,24,05,06,7.30
2007,05,24,05,07,7.30
2007,05,24,05,08,7.30
2007,05,24,05,09,7.30
2007,05,24,05,10,7.30
2007,05,24,05,11,7.30
2007,05,24,05,12,7.30
2007,05,24,05,13,7.30
2007,05,24,05,14,7.30
2007,05,24,05,15,7.30
2007,05,24,05,16,7.30
2007,05,24,05,17,7.30
2007,05,24,05,18,7.30
2007,05,24,05,19,7.30
2007,05,24,05,20,7.30
2007,05,24,05,21,7.30
2007,05,24,05,22,7.30
2007,05,24,05,23,7.30
2007,05,24,05,24,7.30
2007,05,24,05,25,7.30
2007,05,24,05,26,7.30
2007,05,24,05,27,7.30
2007,05,24,05,28,7.30
2007,05,24,05,29,7.30
2007,05,24,05,30,7.30
2007,05,24,05,31,7.30
2007,05,24,05,32,7.30
2007,05,24,05,33,7.30
2007,05,24,05,34,7.30
2007,05,24,05,35,7.30
2007,05,24,05,36,7.40
2007,05,24,05,37,7.40
2007,05,24,05,38,7.40
2007,05,24,05,39,7.40
2007,05,24,05,40,7.40
2007,05,24,05,41,7.40
2007,05,24,05,42,7.40
2007,05,24,05,43,7.40
2007,05,24,05,44,7.40
2007,05,24,05,45,7.40
2007,05,24,05,46,7.50
2007,05,24,05,47,7.50
2007,05,24,05,48,7.60
2007,05,24,05,49,7.60
2007,05,24,05,50,7.60
2007,05,24,05,51,7.60
2007,05,24,05,52,7.60
2007,05,24,05,53,7.60
2007,05,24,05,54,7.60
2007,05,24,05,55,7.60
2007,05,24,05,56,7.60
2007,05,24,05,57,7.60
2007,05,24,05,58,7.60
2007,05,24,05,59,7.60
2007,05,24,06,00,7.60
2007,05,24,06,01,7.60
2007,05,24,06,02,7.70
2007,05,24,06,03,7.70
2007,05,24,06,04,7.70
2007,05,24,06,05,7.80
2007,05,24,06,06,7.80
2007,05,24,06,07,7.80
2007,05,24,06,08,7.90
2007,05,24,06,09,7.90
2007,05,24,06,10,8.00
2007,05,24,06,11,8.00
2007,05,24,06,12,8.10
2007,05,24,06,13,8.10
2007,05,24,06,14,8.20
2007,05,24,06,15,8.20
2007,05,24,06,16,8.30
2007,05,24,06,17,8.30
2007,05,24,06,18,8.40
2007,05,24,06,19,8.40
2007,05,24,06,20,8.50
2007,05,24,06,21,8.50
2007,05,24,06,22,8.60
2007,05,24,06,23,8.70
2007,05,24,06,24,8.80
2007,05,24,06,25,8.80
2007,05,24,06,26,8.90
2007,05,24,06,27,9.00
2007,05,24,06,28,9.00
2007,05,24,06,29,9.10
2007,05,24,06,30,9.20
2007,05,24,06,31,9.20
2007,05,24,06,32,9.30
2007,05,24,06,33,9.40
2007,05,24,06,34,9.40
2007,05,24,06,35,9.50
2007,05,24,06,36,9.50
2007,05,24,06,37,9.60
2007,05,24,06,38,9.70
2007,05,24,06,39,9.70
2007,05,24,06,40,9.70
2007,05,24,06,41,9.80
2007,05,24,06,42,9.90
2007,05,24,06,43,9.90
2007,05,24,06,44,9.90
2007,05,24,06,45,10.10
2007,05,24,06,46,10.10
2007,05,24,06,47,10.20
2007,05,24,06,48,10.20
2007,05,24,06,49,10.30
2007,05,24,06,50,10.40
2007,05,24,06,51,10.40
2007,05,24,06,52,10.50
2007,05,24,06,53,10.60
2007,05,24,06,54,10.70
2007,05,24,06,55,10.80
2007,05,24,06,56,10.90
2007,05,24,06,57,11.00
2007,05,24,06,58,11.10
2007,05,24,06,59,11.30
2007,05,24,07,00,11.40
2007,05,24,07,01,11.40
2007,05,24,07,02,11.50
2007,05,24,07,03,11.60
2007,05,24,07,04,11.70
2007,05,24,07,05,11.80
2007,05,24,07,06,11.90
2007,05,24,07,07,12.00
2007,05,24,07,08,12.10
2007,05,24,07,09,12.30
2007,05,24,07,10,12.40
2007,05,24,07,11,12.50
2007,05,24,07,12,12.60
2007,05,24,07,13,12.80
2007,05,24,07,14,12.80
2007,05,24,07,15,12.90
2007,05,24,07,16,13.00
2007,05,24,07,17,13.10
2007,05,24,07,18,13.10
2007,05,24,07,19,13.20
2007,05,24,07,20,13.20
2007,05,24,07,21,13.20
2007,05,24,07,22,13.30
2007,05,24,07,23,13.30
2007,05,24,07,24,13.30
2007,05,24,07,25,13.30
2007,05,24,07,26,13.30
2007,05,24,07,27,13.30
2007,05,24,07,28,13.30
2007,05,24,07,29,13.40
2007,05,24,07,30,13.40
2007,05,24,07,31,13.40
2007,05,24,07,32,13.40
2007,05,24,07,33,13.40
2007,05,24,07,34,13.40
2007,05,24,07,35,13.40
2007,05,24,07,36,13.50
2007,05,24,07,37,13.50
2007,05,24,07,38,13.60
2007,05,24,07,39,13.70
2007,05,24,07,40,13.70
2007,05,24,07,41,13.80
2007,05,24,07,42,13.90
2007,05,24,07,43,14.00
2007,05,24,07,44,14.00
2007,05,24,07,45,14.10
2007,05,24,07,46,14.20
2007,05,24,07,47,14.20
2007,05,24,07,48,14.40
2007,05,24,07,49,14.40
2007,05,24,07,50,14.50
2007,05,24,07,51,14.60
2007,05,24,07,52,14.70
2007,05,24,07,53,14.70
2007,05,24,07,54,14.80
2007,05,24,07,55,14.80
2007,05,24,07,56,14.80
2007,05,24,07,57,14.90
2007,05,24,07,58,14.90
2007,05,24,07,59,15.00
2007,05,24,08,00,15.00
2007,05,24,08,01,15.10
2007,05,24,08,02,15.10
2007,05,24,08,03,15.20
2007,05,24,08,04,15.20
2007,05,24,08,05,15.20
2007,05,24,08,06,15.20
2007,05,24,08,07,15.20
2007,05,24,08,08,15.20
2007,05,24,08,09,15.30
2007,05,24,08,10,15.30
2007,05,24,08,11,15.30
2007,05,24,08,12,15.30
2007,05,24,08,13,15.40
2007,05,24,08,14,15.40
2007,05,24,08,15,15.50
2007,05,24,08,16,15.60
2007,05,24,08,17,15.60
2007,05,24,08,18,15.70
2007,05,24,08,19,15.70
2007,05,24,08,20,15.70
2007,05,24,08,21,15.60
2007,05,24,08,22,15.60
2007,05,24,08,23,15.50
2007,05,24,08,24,15.50
2007,05,24,08,25,15.50
2007,05,24,08,26,15.50
2007,05,24,08,27,15.40
2007,05,24,08,28,15.40
2007,05,24,08,29,15.30
2007,05,24,08,30,15.30
2007,05,24,08,31,15.30
2007,05,24,08,32,15.30
2007,05,24,08,33,15.40
2007,05,24,08,34,15.50
2007,05,24,08,35,15.50
2007,05,24,08,36,15.50
2007,05,24,08,37,15.50
2007,05,24,08,38,15.40
2007,05,24,08,39,15.40
2007,05,24,08,40,15.40
2007,05,24,08,41,15.40
2007,05,24,08,42,15.40
2007,05,24,08,43,15.40
2007,05,24,08,44,15.30
2007,05,24,08,45,15.30
2007,05,24,08,46,15.30
2007,05,24,08,47,15.40
2007,05,24,08,48,15.50
2007,05,24,08,49,15.50
2007,05,24,08,50,15.50
2007,05,24,08,51,15.60
2007,05,24,08,52,15.70
2007,05,24,08,53,15.80
2007,05,24,08,54,15.90
2007,05,24,08,55,16.10
2007,05,24,08,56,16.20
2007,05,24,08,57,16.20
2007,05,24,08,58,16.30
2007,05,24,08,59,16.20
2007,05,24,09,00,16.10
2007,05,24,09,01,16.10
2007,05,24,09,02,16.00
2007,05,24,09,03,15.90
2007,05,24,09,04,15.90
2007,05,24,09,05,15.90
2007,05,24,09,06,15.90
2007,05,24,09,07,15.90
2007,05,24,09,08,15.90
2007,05,24,09,09,15.90
2007,05,24,09,10,15.80
2007,05,24,09,11,15.80
2007,05,24,09,12,15.80
2007,05,24,09,13,15.80
2007,05,24,09,14,15.80
2007,05,24,09,15,15.80
2007,05,24,09,16,15.80
2007,05,24,09,17,15.80
2007,05,24,09,18,15.90
2007,05,24,09,19,15.90
2007,05,24,09,20,15.90
2007,05,24,09,21,15.80
2007,05,24,09,22,15.80
2007,05,24,09,23,15.80
2007,05,24,09,24,15.80
2007,05,24,09,25,15.80
2007,05,24,09,26,15.90
2007,05,24,09,27,16.10
2007,05,24,09,28,16.10
2007,05,24,09,29,16.10
2007,05,24,09,30,16.10
2007,05,24,09,31,16.10
2007,05,24,09,32,16.10
2007,05,24,09,33,16.10
2007,05,24,09,34,16.10
2007,05,24,09,35,16.10
2007,05,24,09,36,16.10
2007,05,24,09,37,16.10
2007,05,24,09,38,16.10
2007,05,24,09,39,16.10
2007,05,24,09,40,16.00
2007,05,24,09,41,15.90
2007,05,24,09,42,15.90
2007,05,24,09,43,15.90
2007,05,24,09,44,15.90
2007,05,24,09,45,15.90
2007,05,24,09,46,15.90
2007,05,24,09,47,15.90
2007,05,24,09,48,15.90
2007,05,24,09,49,15.90
2007,05,24,09,50,15.80
2007,05,24,09,51,15.80
2007,05,24,09,52,15.70
2007,05,24,09,53,15.70
2007,05,24,09,54,15.70
2007,05,24,09,55,15.70
2007,05,24,09,56,15.80
2007,05,24,09,57,15.80
2007,05,24,09,58,15.90
2007,05,24,09,59,15.90
2007,05,24,10,00,16.10
2007,05,24,10,01,16.10
2007,05,24,10,02,16.20
2007,05,24,10,03,16.10
2007,05,24,10,04,16.10
2007,05,24,10,05,16.10
2007,05,24,10,06,16.10
2007,05,24,10,07,16.10
2007,05,24,10,08,15.90
2007,05,24,10,09,15.90
2007,05,24,10,10,15.90
2007,05,24,10,11,16.00
2007,05,24,10,12,16.10
2007,05,24,10,13,15.90
2007,05,24,10,14,15.90
2007,05,24,10,15,15.90
2007,05,24,10,16,15.80
2007,05,24,10,17,15.90
2007,05,24,10,18,15.90
2007,05,24,10,19,16.00
2007,05,24,10,20,16.10
2007,05,24,10,21,16.10
2007,05,24,10,22,16.20
2007,05,24,10,23,16.20
2007,05,24,10,24,16.20
2007,05,24,10,25,16.20
2007,05,24,10,26,16.20
2007,05,24,10,27,16.30
2007,05,24,10,28,16.30
2007,05,24,10,29,16.30
2007,05,24,10,30,16.40
2007,05,24,10,31,16.40
2007,05,24,10,32,16.40
2007,05,24,10,33,16.40
2007,05,24,10,34,16.40
2007,05,24,10,35,16.60
2007,05,24,10,36,16.70
2007,05,24,10,37,16.80
2007,05,24,10,38,16.90
2007,05,24,10,39,16.90
2007,05,24,10,40,16.90
2007,05,24,10,41,16.90
2007,05,24,10,42,16.90
2007,05,24,10,43,16.90
2007,05,24,10,44,17.00
2007,05,24,10,45,17.00
2007,05,24,10,46,17.00
2007,05,24,10,47,17.00
2007,05,24,10,48,17.00
2007,05,24,10,49,17.00
2007,05,24,10,50,16.90
2007,05,24,10,51,16.90
2007,05,24,10,52,16.80
2007,05,24,10,53,16.80
2007,05,24,10,54,16.90
2007,05,24,10,55,17.00
2007,05,24,10,56,17.00
2007,05,24,10,57,17.00
2007,05,24,10,58,17.00
2007,05,24,10,59,17.10
2007,05,24,11,00,17.10
2007,05,24,11,01,17.10
2007,05,24,11,02,17.10
2007,05,24,11,03,17.10
2007,05,24,11,04,17.10
2007,05,24,11,05,17.10
2007,05,24,11,06,17.10
2007,05,24,11,07,17.10
2007,05,24,11,08,17.20
2007,05,24,11,09,17.20
2007,05,24,11,10,17.30
2007,05,24,11,11,17.30
2007,05,24,11,12,17.40
2007,05,24,11,13,17.50
2007,05,24,11,14,17.50
2007,05,24,11,15,17.50
2007,05,24,11,16,17.60
2007,05,24,11,17,17.60
2007,05,24,11,18,17.60
2007,05,24,11,19,17.60
2007,05,24,11,20,17.60
2007,05,24,11,21,17.60
2007,05,24,11,22,17.70
2007,05,24,11,23,17.70
2007,05,24,11,24,17.70
2007,05,24,11,25,17.70
2007,05,24,11,26,17.70
2007,05,24,11,27,17.60
2007,05,24,11,28,17.50
2007,05,24,11,29,17.40
2007,05,24,11,30,17.30
2007,05,24,11,31,17.30
2007,05,24,11,32,17.30
2007,05,24,11,33,17.30
2007,05,24,11,34,17.30
2007,05,24,11,35,17.30
2007,05,24,11,36,17.40
2007,05,24,11,37,17.40
2007,05,24,11,38,17.50
2007,05,24,11,39,17.60
2007,05,24,11,40,17.50
2007,05,24,11,41,17.50
2007,05,24,11,42,17.50
2007,05,24,11,43,17.40
2007,05,24,11,44,17.40
2007,05,24,11,45,17.40
2007,05,24,11,46,17.50
2007,05,24,11,47,17.60
2007,05,24,11,48,17.60
2007,05,24,11,49,17.70
2007,05,24,11,50,17.70
2007,05,24,11,51,17.80
2007,05,24,11,52,17.80
2007,05,24,11,53,17.80
2007,05,24,11,54,17.90
2007,05,24,11,55,18.00
2007,05,24,11,56,18.10
2007,05,24,11,57,18.20
2007,05,24,11,58,18.20
2007,05,24,11,59,18.30
2007,05,24,12,00,18.20
2007,05,24,12,01,18.10
2007,05,24,12,02,18.10
2007,05,24,12,03,18.10
2007,05,24,12,04,18.10
2007,05,24,12,05,18.20
2007,05,24,12,06,18.30
2007,05,24,12,07,18.30
2007,05,24,12,08,18.30
2007,05,24,12,09,18.30
2007,05,24,12,10,18.40
2007,05,24,12,11,18.50
2007,05,24,12,12,18.50
2007,05,24,12,13,18.50
2007,05,24,12,14,18.60
2007,05,24,12,15,18.60
2007,05,24,12,16,18.60
2007,05,24,12,17,18.70
2007,05,24,12,18,18.70
2007,05,24,12,19,18.70
2007,05,24,12,20,18.70
2007,05,24,12,21,18.70
2007,05,24,12,22,18.60
2007,05,24,12,23,18.50
2007,05,24,12,24,18.40
2007,05,24,12,25,18.50
2007,05,24,12,26,18.50
2007,05,24,12,27,18.60
2007,05,24,12,28,18.60
2007,05,24,12,29,18.60
2007,05,24,12,30,18.60
2007,05,24,12,31,18.60
2007,05,24,12,32,18.60
2007,05,24,12,33,18.50
2007,05,24,12,34,18.50
2007,05,24,12,35,18.40
2007,05,24,12,36,18.40
2007,05,24,12,37,18.50
2007,05,24,12,38,18.40
2007,05,24,12,39,18.40
2007,05,24,12,40,18.40
2007,05,24,12,41,18.40
2007,05,24,12,42,18.40
2007,05,24,12,43,18.30
2007,05,24,12,44,18.20
2007,05,24,12,45,18.20
2007,05,24,12,46,18.20
2007,05,24,12,47,18.20
2007,05,24,12,48,18.20
2007,05,24,12,49,18.20
2007,05,24,12,50,18.30
2007,05,24,12,51,18.30
2007,05,24,12,52,18.40
2007,05,24,12,53,18.40
2007,05,24,12,54,18.60
2007,05,24,12,55,18.60
2007,05,24,12,56,18.80
2007,05,24,12,57,18.90
2007,05,24,12,58,18.90
2007,05,24,12,59,18.80
2007,05,24,13,00,18.80
2007,05,24,13,01,18.90
2007,05,24,13,02,18.90
2007,05,24,13,03,18.90
2007,05,24,13,04,18.90
2007,05,24,13,05,18.90
2007,05,24,13,06,18.90
2007,05,24,13,07,18.90
2007,05,24,13,08,18.90
2007,05,24,13,09,18.90
2007,05,24,13,10,19.00
2007,05,24,13,11,19.10
2007,05,24,13,12,19.10
2007,05,24,13,13,19.10
2007,05,24,13,14,19.10
2007,05,24,13,15,19.10
2007,05,24,13,16,19.20
2007,05,24,13,17,19.20
2007,05,24,13,18,19.20
2007,05,24,13,19,19.30
2007,05,24,13,20,19.30
2007,05,24,13,21,19.40
2007,05,24,13,22,19.50
2007,05,24,13,23,19.50
2007,05,24,13,24,19.30
2007,05,24,13,25,19.00
2007,05,24,13,26,18.70
2007,05,24,13,27,18.60
2007,05,24,13,28,18.50
2007,05,24,13,29,18.20
2007,05,24,13,30,18.10
2007,05,24,13,31,18.20
2007,05,24,13,32,18.20
2007,05,24,13,33,18.20
2007,05,24,13,34,18.30
2007,05,24,13,35,18.30
2007,05,24,13,36,18.30
2007,05,24,13,37,18.30
2007,05,24,13,38,18.20
2007,05,24,13,39,18.20
2007,05,24,13,40,18.30
2007,05,24,13,41,18.50
2007,05,24,13,42,18.50
2007,05,24,13,43,18.50
2007,05,24,13,44,18.50
2007,05,24,13,45,18.30
2007,05,24,13,46,18.20
2007,05,24,13,47,18.20
2007,05,24,13,48,18.40
2007,05,24,13,49,18.60
2007,05,24,13,50,18.70
2007,05,24,13,51,18.90
2007,05,24,13,52,19.20
2007,05,24,13,53,19.40
2007,05,24,13,54,19.60
2007,05,24,13,55,19.70
2007,05,24,13,56,19.70
2007,05,24,13,57,19.80
2007,05,24,13,58,19.80
2007,05,24,13,59,19.80
2007,05,24,14,00,19.80
2007,05,24,14,01,19.70
2007,05,24,14,02,19.50
2007,05,24,14,03,19.50
2007,05,24,14,04,19.40
2007,05,24,14,05,19.40
2007,05,24,14,06,19.30
2007,05,24,14,07,19.40
2007,05,24,14,08,19.50
2007,05,24,14,09,19.50
2007,05,24,14,10,19.50
2007,05,24,14,11,19.40
2007,05,24,14,12,19.30
2007,05,24,14,13,19.10
2007,05,24,14,14,19.10
2007,05,24,14,15,19.10
2007,05,24,14,16,19.00
2007,05,24,14,17,18.90
2007,05,24,14,18,18.90
2007,05,24,14,19,18.90
2007,05,24,14,20,18.80
2007,05,24,14,21,18.70
2007,05,24,14,22,18.60
2007,05,24,14,23,18.60
2007,05,24,14,24,18.60
2007,05,24,14,25,18.60
2007,05,24,14,26,18.70
2007,05,24,14,27,18.90
2007,05,24,14,28,19.10
2007,05,24,14,29,19.10
2007,05,24,14,30,19.10
2007,05,24,14,31,19.30
2007,05,24,14,32,19.40
2007,05,24,14,33,19.40
2007,05,24,14,34,19.50
2007,05,24,14,35,19.70
2007,05,24,14,36,19.90
2007,05,24,14,37,20.00
2007,05,24,14,38,20.20
2007,05,24,14,39,20.20
2007,05,24,14,40,20.20
2007,05,24,14,41,20.20
2007,05,24,14,42,20.30
2007,05,24,14,43,20.50
2007,05,24,14,44,20.50
2007,05,24,14,45,20.60
2007,05,24,14,46,20.70
2007,05,24,14,47,20.70
2007,05,24,14,48,20.70
2007,05,24,14,49,20.60
2007,05,24,14,50,20.50
2007,05,24,14,51,20.50
2007,05,24,14,52,20.40
2007,05,24,14,53,20.40
2007,05,24,14,54,20.40
2007,05,24,14,55,20.30
2007,05,24,14,56,20.30
2007,05,24,14,57,20.20
2007,05,24,14,58,20.30
2007,05,24,14,59,20.40
2007,05,24,15,00,20.50
2007,05,24,15,01,20.50
2007,05,24,15,02,20.60
2007,05,24,15,03,20.70
2007,05,24,15,04,20.80
2007,05,24,15,05,20.80
2007,05,24,15,06,20.80
2007,05,24,15,07,20.60
2007,05,24,15,08,20.40
2007,05,24,15,09,20.10
2007,05,24,15,10,19.90
2007,05,24,15,11,19.60
2007,05,24,15,12,19.00
2007,05,24,15,13,18.60
2007,05,24,15,14,18.40
2007,05,24,15,15,18.20
2007,05,24,15,16,18.20
2007,05,24,15,17,18.10
2007,05,24,15,18,17.90
2007,05,24,15,19,17.70
2007,05,24,15,20,17.50
2007,05,24,15,21,17.40
2007,05,24,15,22,17.30
2007,05,24,15,23,17.20
2007,05,24,15,24,17.10
2007,05,24,15,25,17.10
2007,05,24,15,26,17.10
2007,05,24,15,27,17.10
2007,05,24,15,28,17.10
2007,05,24,15,29,17.10
2007,05,24,15,30,17.30
2007,05,24,15,31,17.30
2007,05,24,15,32,17.30
2007,05,24,15,33,17.20
2007,05,24,15,34,17.10
2007,05,24,15,35,17.20
2007,05,24,15,36,17.40
2007,05,24,15,37,17.50
2007,05,24,15,38,17.70
2007,05,24,15,39,17.70
2007,05,24,15,40,17.70
2007,05,24,15,41,17.80
2007,05,24,15,42,17.90
2007,05,24,15,43,17.90
2007,05,24,15,44,17.80
2007,05,24,15,45,17.80
2007,05,24,15,46,17.80
2007,05,24,15,47,17.80
2007,05,24,15,48,17.80
2007,05,24,15,49,17.80
2007,05,24,15,50,17.80
2007,05,24,15,51,17.80
2007,05,24,15,52,17.80
2007,05,24,15,53,17.90
2007,05,24,15,54,17.90
2007,05,24,15,55,17.80
2007,05,24,15,56,17.80
2007,05,24,15,57,17.90
2007,05,24,15,58,18.00
2007,05,24,15,59,18.10
2007,05,24,16,00,18.20
2007,05,24,16,01,18.20
2007,05,24,16,02,18.10
2007,05,24,16,03,17.90
2007,05,24,16,04,17.90
2007,05,24,16,05,17.90
2007,05,24,16,06,17.80
2007,05,24,16,07,17.80
2007,05,24,16,08,17.70
2007,05,24,16,09,17.60
2007,05,24,16,10,17.50
2007,05,24,16,11,17.40
2007,05,24,16,12,17.30
2007,05,24,16,13,17.30
2007,05,24,16,14,17.30
2007,05,24,16,15,17.30
2007,05,24,16,16,17.30
2007,05,24,16,17,17.30
2007,05,24,16,18,17.30
2007,05,24,16,19,17.30
2007,05,24,16,20,17.40
2007,05,24,16,21,17.50
2007,05,24,16,22,17.60
2007,05,24,16,23,17.70
2007,05,24,16,24,17.70
2007,05,24,16,25,17.80
2007,05,24,16,26,17.80
2007,05,24,16,27,17.90
2007,05,24,16,28,17.90
2007,05,24,16,29,17.90
2007,05,24,16,30,18.00
2007,05,24,16,31,18.20
2007,05,24,16,32,18.20
2007,05,24,16,33,18.20
2007,05,24,16,34,18.20
2007,05,24,16,35,18.20
2007,05,24,16,36,18.20
2007,05,24,16,37,18.10
2007,05,24,16,38,18.10
2007,05,24,16,39,18.00
2007,05,24,16,40,17.90
2007,05,24,16,41,17.90
2007,05,24,16,42,18.00
2007,05,24,16,43,18.10
2007,05,24,16,44,18.10
2007,05,24,16,45,18.10
2007,05,24,16,46,18.20
2007,05,24,16,47,18.20
2007,05,24,16,48,18.20
2007,05,24,16,49,18.30
2007,05,24,16,50,18.30
2007,05,24,16,51,18.30
2007,05,24,16,52,18.60
2007,05,24,16,53,18.70
2007,05,24,16,54,18.80
2007,05,24,16,55,18.80
2007,05,24,16,56,18.80
2007,05,24,16,57,18.80
2007,05,24,16,58,18.90
2007,05,24,16,59,19.00
2007,05,24,17,00,19.10
2007,05,24,17,01,19.10
2007,05,24,17,02,19.10
2007,05,24,17,03,19.10
2007,05,24,17,04,19.10
2007,05,24,17,05,19.00
2007,05,24,17,06,18.90
2007,05,24,17,07,18.90
2007,05,24,17,08,18.90
2007,05,24,17,09,18.90
2007,05,24,17,10,18.90
2007,05,24,17,11,18.90
2007,05,24,17,12,18.90
2007,05,24,17,13,18.90
2007,05,24,17,14,18.90
2007,05,24,17,15,18.90
2007,05,24,17,16,18.90
2007,05,24,17,17,18.90
2007,05,24,17,18,18.90
2007,05,24,17,19,19.10
2007,05,24,17,20,19.10
2007,05,24,17,21,19.10
2007,05,24,17,22,19.20
2007,05,24,17,23,19.30
2007,05,24,17,24,19.30
2007,05,24,17,25,19.30
2007,05,24,17,26,19.30
2007,05,24,17,27,19.40
2007,05,24,17,28,19.40
2007,05,24,17,29,19.40
2007,05,24,17,30,19.50
2007,05,24,17,31,19.50
2007,05,24,17,32,19.60
2007,05,24,17,33,19.70
2007,05,24,17,34,19.70